TimeEDT,TemperatureF,Dew PointF,Humidity,Sea Level PressureIn,VisibilityMPH,Wind Direction,Wind SpeedMPH,Gust SpeedMPH,PrecipitationIn,Events,Conditions,WindDirDegrees,DateUTC
12:53 AM,72.0,59.0,64,29.98,10.0,South,5.8,-,N/A,,Overcast,180,2013-06-16 04:53:00
1:53 AM,72.0,59.0,64,29.96,10.0,SSW,6.9,-,N/A,,Overcast,200,2013-06-16 05:53:00
2:53 AM,71.1,59.0,66,29.95,10.0,SSW,5.8,-,N/A,,Overcast,210,2013-06-16 06:53:00
3:53 AM,70.0,60.1,71,29.94,10.0,SSW,3.5,-,N/A,,Scattered Clouds,210,2013-06-16 07:53:00
4:53 AM,70.0,60.1,71,29.94,10.0,SW,6.9,-,N/A,,Mostly Cloudy,220,2013-06-16 08:53:00
5:53 AM,71.1,61.0,70,29.96,10.0,West,6.9,-,N/A,,Overcast,260,2013-06-16 09:53:00
6:53 AM,70.0,62.1,76,29.96,10.0,SSW,3.5,-,0.00,,Overcast,210,2013-06-16 10:53:00
7:53 AM,70.0,64.0,81,29.97,10.0,WSW,3.5,-,0.00,,Overcast,240,2013-06-16 11:53:00
8:53 AM,70.0,66.0,87,29.99,7.0,WSW,4.6,-,0.01,Rain,Light Rain,240,2013-06-16 12:53:00
9:53 AM,70.0,64.9,84,30.00,8.0,WSW,6.9,-,0.01,Rain,Light Rain,240,2013-06-16 13:53:00
10:53 AM,70.0,64.9,84,29.98,10.0,WSW,12.7,19.6,0.01,,Overcast,250,2013-06-16 14:53:00
11:53 AM,71.1,64.9,81,29.98,9.0,SW,9.2,-,N/A,,Overcast,230,2013-06-16 15:53:00
12:53 PM,71.1,64.9,81,29.98,10.0,SW,12.7,-,0.00,,Overcast,230,2013-06-16 16:53:00
1:53 PM,72.0,66.0,81,29.97,10.0,WSW,10.4,-,N/A,,Overcast,250,2013-06-16 17:53:00
2:53 PM,71.1,66.0,84,29.98,6.0,WSW,11.5,-,0.02,Rain,Light Rain,250,2013-06-16 18:53:00
3:53 PM,71.1,66.9,87,29.97,10.0,WSW,11.5,20.7,0.01,,Overcast,240,2013-06-16 19:53:00
4:53 PM,75.0,64.9,71,29.97,10.0,West,8.1,18.4,N/A,,Mostly Cloudy,260,2013-06-16 20:53:00
5:53 PM,75.0,66.0,73,29.95,10.0,WSW,9.2,-,N/A,,Scattered Clouds,240,2013-06-16 21:53:00
6:53 PM,75.0,66.9,76,29.94,10.0,SW,6.9,-,N/A,,Mostly Cloudy,230,2013-06-16 22:53:00
7:53 PM,73.9,66.9,79,29.95,10.0,SW,4.6,-,N/A,,Mostly Cloudy,230,2013-06-16 23:53:00
8:53 PM,73.0,63.0,71,29.95,10.0,WSW,8.1,-,N/A,,Partly Cloudy,240,2013-06-17 00:53:00
9:53 PM,70.0,64.0,81,29.96,10.0,Calm,Calm,-,N/A,,Clear,0,2013-06-17 01:53:00
10:53 PM,68.0,64.0,87,29.97,10.0,South,3.5,-,N/A,,Clear,180,2013-06-17 02:53:00
11:53 PM,66.9,64.0,90,29.97,10.0,South,3.5,-,N/A,,Clear,190,2013-06-17 03:53:00